TITAN 3C TRANSTAGE R/B, 7324

Orbit data source: Space-Track

TITAN 3C TRANSTAGE R/B, 7324 is space debris in GEO originally from a launch on Thu, 30 May 1974 UTC launched from the Air Force Eastern Test Range (AFETR). Debris objects in space refer to the collection of defunct objects orbiting the Earth. Examples of debris include non-operational satellites, rocket bodies, and fragments generated from explosions, collisions, or faulty payload assembly.

Not visible in the next 10 days
Identifier
7324, 1974-039C
Orbit
GEO
Country
Flag of USUS
Related business
Manufacturer
Martin Marietta
Mission
Spacecraft
Bus & Motor
TRANSTAGE, Unknown motor
Mass
~1,950 kg wet, ~1,950 kg dry
Launch date (UTC)
1974-05-30 (51 years ago)
Launch vehicle
Unknown
Launch site
Air Force Eastern Test Range (AFETR)
Object type
Payload
Rocket body
Debris
Shape & HBR
Cyl + 2 Nozzle, 2.3 m
Radar Cross Section
14.974 m², Large (>1 m²)

Expand to show TLE details & history
Last TLE update: 6 hours ago

TLE from 6 hours ago
0 TITAN 3C TRANSTAGE R/B
1 07324U 74039C   25260.95976510  .00000087  00000-0  00000-0 0  9991
2 07324   3.4461 265.9710 0032260  73.6489  42.1611  1.00723635116882
Epoch: 2025-09-17T23:02Z
TLE epoch observation values (Epoch: 2025-09-17T23:02:03.704Z)
Latitude
3.07933°
Longitude
39.43809°
Altitude
35,558.66 km
Speed
3.087 km/s
True Right ascension
01h 28m 19s
True Declination
3° 04' 34"
Sunlit
Object was in daylight at epoch
Visualization orbit readout
Latitude
Unknown
Longitude
Unknown
Altitude
Unknown
Speed
Unknown
Apparent Right ascension
Unknown
Apparent Declination
Unknown
Sunlit
N/A
Visualization observer readout
Local Sidereal Time
21:21:29
Azimuth
Unknown
Elevation
Unknown
Doppler factor
Unknown
Orbital elements
Apogee altitude
35,797.086 km
Perigee altitude
35,525.847 km
Semi-major axis
42,039.604 km
Eccentricity
0.00323
Inclination
3.4461°
RAAN
265.971°
Arg. of periapsis
73.6489°
True anomaly
42.40997°
Mean anomaly
42.1611°
Eccentric anomaly
42.28546°
Mean motion
0.2518 °/min
Orbital period
1,429.71 mins
BSTAR
0
Loading maneuver chart data...
Computing Atmospheric mass density...
Loading historical data...
Loading historical data...
Loading historical data...
Loading historical data...
Loading historical data...
Loading historical data...
Loading historical data...
Other satellites on launch #39 in the year 1974 (1974-05-30 UTC)

Documentation

Showing up to 5 results
|